Inquirer Daily News

Weather

Get conditions and forecasts for any City, State, ZIP code or Country:  
Trenton, NJ
on Thursday, January 17, 2013

Thursday
Previous Day Next Day
Daily Summary
 ActualAverageRecord
Temperature
Mean Temperature °F 31°F  
Max Temperature 43°F 39°F 67°F (1870)
Min Temperature 36°F 23°F -8°F (1982)
Degree Days
Heating Degree Days 25 34  
Month to date heating degree days 459 577  
Since 1 July heating degree days 2217 2472  
Cooling Degree Days 0 0  
Month to date cooling degree days 0 0  
Year to date cooling degree days 0 0  
Moisture
Dew Point 29°F   
Average Humidity 69    
Maximum Humidity 85    
Minimum Humidity 53    
Precipitation
Precipitation 0.00 in 0.09 in 1.30 in (1994)
Month to date precipitation 1.63 1.80  
Year to date precipitation 1.63 1.80  
Wind
Wind Speed 6 mph   
Max Wind Speed 14 mph   
Max Gust Speed 21 mph   
Visibility 9 miles   
Events     

Key: T is trace of precipitation, MM is missing value
Source: NWS Daily Summary
Time(EST)TemperatureDew PointHumidity Pressure Visibility Wind DirectionWind SpeedGust SpeedPrecipitationEvents Conditions
12:53 AM 37.0°F 34.0°F 89% 29.93 in 6.0 miles West 3.5 mph - N/A   Clear
1:53 AM 37.0°F 34.0°F 89% 29.94 in 6.0 miles West 4.6 mph - N/A   Partly Cloudy
2:53 AM 37.0°F 34.0°F 89% 29.96 in 6.0 miles West 4.6 mph - N/A   Clear
3:53 AM 37.9°F 34.0°F 86% 29.93 in 9.0 miles WNW 4.6 mph - N/A   Clear
4:53 AM 39.0°F 30.9°F 73% 29.94 in 10.0 miles West 5.8 mph - N/A   Clear
5:53 AM 39.0°F 28.0°F 65% 29.97 in 10.0 miles NW 10.4 mph 16.1 mph N/A   Clear
7:53 AM 37.9°F 28.0°F 68% 30.04 in 10.0 miles NW 8.1 mph - N/A   Clear
8:53 AM 37.9°F 28.0°F 68% 30.06 in 10.0 miles NW 4.6 mph - N/A   Clear
9:53 AM 39.0°F 28.9°F 67% 30.07 in 10.0 miles NNW 6.9 mph - N/A   Clear
10:53 AM 41.0°F 28.0°F 60% 30.08 in 10.0 miles NNW 11.5 mph 18.4 mph N/A   Partly Cloudy
11:53 AM 42.1°F 28.0°F 58% 30.07 in 10.0 miles NW 6.9 mph - N/A   Partly Cloudy
12:53 PM 42.1°F 28.0°F 58% 30.05 in 10.0 miles North 11.5 mph 18.4 mph N/A   Scattered Clouds
1:53 PM 42.1°F 27.0°F 55% 30.03 in 10.0 miles North 9.2 mph - N/A   Clear
2:53 PM 42.1°F 27.0°F 55% 30.03 in 10.0 miles North 6.9 mph - N/A   Partly Cloudy
3:53 PM 41.0°F 27.0°F 57% 30.04 in 10.0 miles North 6.9 mph - N/A   Clear
4:53 PM 39.9°F 26.1°F 58% 30.06 in 10.0 miles Calm Calm - N/A   Mostly Cloudy
5:53 PM 39.0°F 27.0°F 62% 30.08 in 10.0 miles NNW 3.5 mph - N/A   Overcast
6:53 PM 39.0°F 27.0°F 62% 30.07 in 10.0 miles North 4.6 mph - N/A   Overcast
7:53 PM 37.9°F 28.0°F 68% 30.07 in 10.0 miles Calm Calm - N/A   Overcast
8:53 PM 37.0°F 28.0°F 70% 30.05 in 10.0 miles Calm Calm - N/A   Overcast
9:53 PM 37.0°F 28.0°F 70% 30.03 in 10.0 miles North 4.6 mph - N/A   Overcast
10:53 PM 37.0°F 28.0°F 70% 30.05 in 10.0 miles NNE 3.5 mph - N/A   Overcast
11:53 PM 36.0°F 25.0°F 64% 29.99 in 10.0 miles NE 4.6 mph - N/A   Overcast
Astronomy
Sunrise:07:19 AM (EST) Moon Rise:10:23 AM (EST)1/17
Sunset:05:00 PM (EST) Moon Set:11:50 PM (EST)1/17
Moon Phase
Jan. 17 Jan. 18 Jan. 26 Feb. 03 Feb. 10

Copyright © 2014 The Weather Underground, Inc.